TimeCST,TemperatureF,Dew PointF,Humidity,Sea Level PressureIn,VisibilityMPH,Wind Direction,Wind SpeedMPH,Gust SpeedMPH,PrecipitationIn,Events,Conditions,WindDirDegrees,DateUTC
12:27 AM,26.6,26.6,100,30.34,1.8,Calm,Calm,-,N/A,,Clear,0,2012-02-06 06:27:00
12:43 AM,28.4,26.6,93,30.34,0.8,Calm,Calm,-,N/A,,Clear,0,2012-02-06 06:43:00
12:51 AM,26.6,26.6,100,30.33,2.0,Calm,Calm,-,N/A,,Clear,0,2012-02-06 06:51:00
12:53 AM,27.0,26.1,96,30.35,2.5,Calm,Calm,-,N/A,,Clear,0,2012-02-06 06:53:00
1:00 AM,26.6,26.6,100,30.33,4.0,Calm,Calm,-,N/A,,Clear,0,2012-02-06 07:00:00
1:28 AM,28.4,26.6,93,30.33,1.8,Calm,Calm,-,N/A,,Clear,0,2012-02-06 07:28:00
1:35 AM,28.4,26.6,93,30.33,3.0,Calm,Calm,-,N/A,,Clear,0,2012-02-06 07:35:00
1:53 AM,27.0,26.1,96,30.35,6.0,Calm,Calm,-,N/A,,Clear,0,2012-02-06 07:53:00
2:53 AM,27.0,26.1,96,30.34,6.0,Calm,Calm,-,N/A,,Clear,0,2012-02-06 08:53:00
3:53 AM,26.1,24.1,92,30.33,8.0,Calm,Calm,-,N/A,,Clear,0,2012-02-06 09:53:00
4:53 AM,25.0,23.0,92,30.32,9.0,Calm,Calm,-,N/A,,Clear,0,2012-02-06 10:53:00
5:53 AM,25.0,21.9,88,30.32,9.0,Calm,Calm,-,N/A,,Clear,0,2012-02-06 11:53:00
6:53 AM,25.0,21.9,88,30.32,8.0,Calm,Calm,-,N/A,,Clear,0,2012-02-06 12:53:00
7:53 AM,25.0,23.0,92,30.33,6.0,Calm,Calm,-,N/A,,Clear,0,2012-02-06 13:53:00
8:53 AM,30.9,28.0,89,30.34,10.0,Calm,Calm,-,N/A,,Clear,0,2012-02-06 14:53:00
9:53 AM,35.1,30.0,82,30.34,10.0,West,8.1,-,N/A,,Clear,260,2012-02-06 15:53:00
10:53 AM,39.0,30.9,73,30.33,10.0,West,5.8,-,N/A,,Clear,280,2012-02-06 16:53:00
11:53 AM,44.1,32.0,63,30.30,10.0,West,8.1,-,N/A,,Clear,280,2012-02-06 17:53:00
12:53 PM,48.0,32.0,54,30.27,10.0,West,11.5,-,N/A,,Clear,260,2012-02-06 18:53:00
1:53 PM,51.1,30.0,44,30.23,10.0,West,8.1,-,N/A,,Clear,270,2012-02-06 19:53:00
2:53 PM,52.0,28.9,41,30.21,10.0,Variable,3.5,-,N/A,,Clear,0,2012-02-06 20:53:00
3:53 PM,53.1,27.0,37,30.21,10.0,NW,4.6,-,N/A,,Clear,310,2012-02-06 21:53:00
4:53 PM,52.0,27.0,38,30.20,10.0,WNW,5.8,-,N/A,,Clear,300,2012-02-06 22:53:00
5:53 PM,46.9,28.0,48,30.20,10.0,Calm,Calm,-,N/A,,Clear,0,2012-02-06 23:53:00
6:53 PM,43.0,28.9,58,30.21,10.0,Calm,Calm,-,N/A,,Clear,0,2012-02-07 00:53:00
7:53 PM,37.9,32.0,79,30.22,10.0,Calm,Calm,-,N/A,,Clear,0,2012-02-07 01:53:00
8:53 PM,35.1,30.0,82,30.22,10.0,Calm,Calm,-,N/A,,Clear,0,2012-02-07 02:53:00
9:53 PM,36.0,30.0,79,30.23,10.0,Calm,Calm,-,N/A,,Clear,0,2012-02-07 03:53:00
10:53 PM,35.1,30.0,82,30.23,10.0,Calm,Calm,-,N/A,,Clear,0,2012-02-07 04:53:00
11:53 PM,35.1,30.9,85,30.24,10.0,Calm,Calm,-,N/A,,Scattered Clouds,0,2012-02-07 05:53:00